Date String (YYYY-MM-DD hh:mm:ss) UTC,Instrument flags,Ambient pressure (hPa),Sample flow (lpm),Bypass flow (lpm),Sample temperature (°C),Ambient temperature (°C),ASC tube jacket temperature (°C),LED temperature (°C),Box temperature (°C),Sample RH (%),Span deviation,Mass concentration (μg/m³),Mass concentration (μg/m³),Mass concentration (μg/m³)
DateTimeUTC,F1_M11,P_M11,Q1_M11,Q2_M11,T1_M11,T2_M11,T3_M11,T4_M11,T5_M11,U1_M11,ZSPAN_M11,X0_M11,X2_M11,X1_M11
2022-11-19 04:00:00,,0829.8,5.00,0.00,22.3,22.3,00.0,31.0,24.3,08.5,0000.0,0017.97,0011.86,0011.32
2022-11-19 04:01:00,,0829.8,4.99,0.00,22.3,22.0,00.0,31.1,24.3,08.5,0000.0,0018.10,0011.82,0011.26
2022-11-19 04:02:00,,0829.8,5.01,0.00,22.3,21.6,00.0,31.1,24.2,08.4,0000.0,0018.10,0011.79,0011.24
2022-11-19 04:03:00,,0829.8,5.01,0.00,22.3,21.3,00.0,31.2,24.1,08.5,0000.0,0018.69,0011.80,0011.22
2022-11-19 04:04:00,,0829.8,4.98,0.00,22.3,21.1,00.0,31.2,24.1,08.4,0000.0,0019.12,0011.85,0011.23
2022-11-19 04:05:00,,0829.8,5.00,0.00,22.2,20.9,00.0,31.2,24.0,08.4,0000.0,0018.73,0011.88,0011.23
2022-11-19 04:06:00,,0829.9,5.01,0.00,22.2,20.7,00.0,31.2,23.9,08.4,0000.0,0018.68,0011.89,0011.20
2022-11-19 04:07:00,,0829.8,5.00,0.00,22.1,20.6,00.0,31.2,23.9,08.4,0000.0,0018.46,0011.83,0011.13
2022-11-19 04:08:00,,0829.9,4.99,0.00,22.1,20.4,00.0,31.1,23.8,08.4,0000.0,0018.13,0011.77,0011.09
2022-11-19 04:09:00,,0829.9,5.01,0.00,22.1,21.0,00.0,31.1,23.9,08.4,0000.0,0018.65,0011.75,0011.07
2022-11-19 04:10:00,,0829.8,5.00,0.00,22.2,22.0,00.0,31.0,24.1,08.3,0000.0,0018.97,0011.70,0011.02
2022-11-19 04:11:00,,0829.9,4.99,0.00,22.3,22.5,00.0,31.0,24.3,08.3,0000.0,0018.68,0011.64,0010.94
2022-11-19 04:12:00,,0829.8,5.00,0.00,22.3,22.2,00.0,31.1,24.3,08.2,0000.0,0018.79,0011.54,0010.85
2022-11-19 04:13:00,,0829.8,5.02,0.00,22.3,21.8,00.0,31.1,24.2,08.2,0000.0,0018.64,0011.38,0010.72
2022-11-19 04:14:00,,0829.8,4.98,0.00,22.3,21.4,00.0,31.2,24.1,08.2,0000.0,0017.97,0011.23,0010.59
2022-11-19 04:15:00,,0829.7,5.01,0.00,22.3,21.2,00.0,31.2,24.1,08.2,0000.0,0017.24,0011.07,0010.47
2022-11-19 04:16:00,,0829.8,5.01,0.00,22.2,20.9,00.0,31.2,24.0,08.2,0000.0,0016.93,0010.98,0010.37
2022-11-19 04:17:00,,0829.8,4.98,0.00,22.2,20.7,00.0,31.2,23.9,08.2,0000.0,0016.75,0010.90,0010.34
2022-11-19 04:18:00,,0829.8,4.99,0.00,22.2,20.5,00.0,31.2,23.9,08.3,0000.0,0016.71,0010.88,0010.31
2022-11-19 04:19:00,,0829.8,5.02,0.00,22.1,20.4,00.0,31.1,23.8,08.3,0000.0,0016.44,0010.87,0010.30
2022-11-19 04:20:00,,0829.8,5.00,0.00,22.1,20.5,00.0,31.1,23.8,08.3,0000.0,0015.61,0010.78,0010.23
2022-11-19 04:21:00,,0829.8,5.00,0.00,22.1,21.3,00.0,31.0,23.9,08.3,0000.0,0015.21,0010.70,0010.16
2022-11-19 04:22:00,,0829.8,4.99,0.00,22.2,22.1,00.0,31.0,24.1,08.3,0000.0,0015.20,0010.64,0010.12
2022-11-19 04:23:00,,0829.8,5.00,0.00,22.3,22.4,00.0,31.0,24.3,08.2,0000.0,0015.24,0010.66,0010.11
2022-11-19 04:24:00,,0829.8,5.01,0.00,22.3,21.9,00.0,31.1,24.2,08.3,0000.0,0015.52,0010.69,0010.14
2022-11-19 04:25:00,,0829.7,5.00,0.00,22.3,21.5,00.0,31.1,24.1,08.3,0000.0,0015.46,0010.73,0010.19
2022-11-19 04:26:00,,0829.7,5.00,0.00,22.2,21.1,00.0,31.2,24.0,08.4,0000.0,0015.60,0010.80,0010.26
2022-11-19 04:27:00,,0829.7,5.00,0.00,22.2,20.9,00.0,31.2,23.9,08.4,0000.0,0015.81,0010.85,0010.33
2022-11-19 04:28:00,,0829.9,5.00,0.00,22.1,20.6,00.0,31.2,23.9,08.4,0000.0,0016.03,0010.90,0010.37
2022-11-19 04:29:00,,0829.7,5.00,0.00,22.1,20.4,00.0,31.1,23.7,08.4,0000.0,0016.03,0010.92,0010.39
2022-11-19 04:30:00,,0829.6,4.99,0.00,22.0,20.1,00.0,31.1,23.6,08.5,0000.0,0016.00,0010.90,0010.34
2022-11-19 04:31:00,,0829.6,5.00,0.00,21.9,19.9,00.0,31.1,23.5,08.5,0000.0,0016.05,0010.95,0010.35
2022-11-19 04:32:00,,0829.6,5.01,0.00,21.9,20.6,00.0,31.0,23.6,08.6,0000.7,0016.29,0011.11,0010.46
2022-11-19 04:33:00,,0829.8,4.99,0.00,22.0,21.6,00.0,30.9,23.9,08.6,0000.0,0015.94,0011.24,0010.59
2022-11-19 04:34:00,,0830.2,4.99,0.00,22.1,22.2,00.0,31.0,24.0,08.6,0000.0,0015.79,0011.33,0010.69
2022-11-19 04:35:00,,0829.9,5.01,0.00,22.2,21.8,00.0,31.0,24.0,08.6,0000.0,0015.53,0011.43,0010.78
2022-11-19 04:36:00,,0829.9,5.01,0.00,22.1,21.2,00.0,31.0,23.9,08.5,0000.0,0015.77,0011.51,0010.85
2022-11-19 04:37:00,,0829.6,4.98,0.00,22.1,20.8,00.0,31.1,23.9,08.6,0001.6,0016.39,0011.63,0010.96
2022-11-19 04:38:00,,0829.7,5.00,0.00,22.0,20.4,00.0,31.1,23.7,08.5,0003.0,0016.66,0011.85,0011.16
2022-11-19 04:39:00,,0829.6,5.01,0.00,22.0,20.1,00.0,31.0,23.6,08.5,0003.1,0016.86,0011.93,0011.22
2022-11-19 04:40:00,,0829.7,5.01,0.00,21.9,20.0,00.0,31.0,23.5,08.5,0002.7,0017.27,0012.05,0011.34
2022-11-19 04:41:00,,0829.8,4.99,0.00,21.9,19.9,00.0,31.0,23.5,08.5,0002.4,0017.41,0012.18,0011.50
2022-11-19 04:42:00,,0829.9,4.99,0.00,21.8,19.8,00.0,31.0,23.5,08.5,0002.4,0017.48,0012.22,0011.57
2022-11-19 04:43:00,,0829.8,5.03,0.00,21.9,20.5,00.0,30.9,23.6,08.5,0002.6,0017.34,0012.14,0011.53
2022-11-19 04:44:00,,0830.0,4.98,0.00,21.9,21.5,00.0,30.9,23.8,08.4,0002.7,0016.99,0011.90,0011.31
2022-11-19 04:45:00,,0829.7,4.99,0.00,22.0,21.8,00.0,30.9,23.9,08.2,0002.5,0016.62,0011.63,0011.03
2022-11-19 04:46:00,,0829.8,5.01,0.00,22.0,21.4,00.0,30.9,23.9,08.1,0002.5,0016.57,0011.31,0010.71
2022-11-19 04:47:00,,0829.6,4.99,0.00,22.0,21.0,00.0,30.9,23.8,08.1,0002.4,0016.49,0010.98,0010.41
2022-11-19 04:48:00,,0829.6,4.99,0.00,22.0,20.7,00.0,30.9,23.7,08.1,0002.3,0015.58,0010.62,0010.04
2022-11-19 04:49:00,,0829.6,5.02,0.00,21.9,20.5,00.0,30.9,23.7,08.1,0002.5,0014.87,0010.19,0009.61
2022-11-19 04:50:00,,0829.6,4.98,0.00,21.9,20.3,00.0,30.9,23.6,08.2,0002.3,0014.37,0009.92,0009.35
2022-11-19 04:51:00,,0829.6,5.02,0.00,21.9,20.2,00.0,30.9,23.5,08.2,0001.9,0013.94,0009.64,0009.06
2022-11-19 04:52:00,,0829.6,5.01,0.00,21.8,20.7,00.0,30.8,23.6,08.2,0001.4,0013.64,0009.33,0008.77
2022-11-19 04:53:00,,0829.6,5.00,0.00,21.9,21.6,00.0,30.8,23.8,08.2,0001.0,0013.42,0009.12,0008.52
2022-11-19 04:54:00,,0829.6,4.99,0.00,22.0,22.0,00.0,30.8,24.0,08.2,0000.9,0013.25,0008.96,0008.35
2022-11-19 04:55:00,,0829.5,4.98,0.00,22.0,21.6,00.0,30.9,23.9,08.2,0000.8,0013.23,0008.93,0008.31
2022-11-19 04:56:00,,0829.5,5.00,0.00,22.0,21.1,00.0,30.9,23.8,08.2,0001.0,0013.22,0008.99,0008.38
2022-11-19 04:57:00,,0829.6,5.00,0.00,22.0,20.7,00.0,30.9,23.7,08.2,0000.0,0013.30,0009.12,0008.50
2022-11-19 04:58:00,,0829.6,4.99,0.00,21.9,20.3,00.0,30.9,23.5,08.3,0000.7,0013.19,0009.25,0008.62
2022-11-19 04:59:00,,0829.6,5.00,0.00,21.8,19.9,00.0,30.9,23.4,08.3,0000.0,0013.50,0009.38,0008.74
